Vorticity
nan nan nan nan nan nan nan nan nan nan nan nan nan nan nan nan nan nan nan nan nan nan nan nan nan nan nan nan nan nan nan nan nan nan nan nan nan nan nan nan nan nan nan nan nan nan nan nan nan nan nan nan nan nan nan nan nan nan nan nan nan nan nan nan nan nan nan nan nan
nan 7 8 9 8 8 9 10 10 10 10 10 10 10 10 10 10 9 9 9 9 10 10 10 12 13 14 14 13 11 8 8 10 10 10 8 8 8 8 8 9 9 9 8 6 5 8 8 5 5 6 9 10 9 8 9 11 11 10 6 5 8 11 10 10 9 8 5 nan
nan 7 7 8 8 8 8 8 9 10 9 9 10 11 10 9 9 10 10 10 10 10 9 10 13 14 13 11 11 11 10 10 10 10 9 9 9 9 8 9 10 9 8 8 6 5 8 8 5 5 6 9 9 8 7 9 11 12 12 7 4 8 10 10 11 10 8 8 nan
nan 7 7 9 10 7 6 7 9 8 7 8 9 10 10 8 8 10 11 11 9 9 10 11 11 12 12 12 11 10 10 10 10 9 9 9 10 10 9 9 9 9 8 8 7 7 8 6 4 6 9 11 9 7 7 10 10 9 10 10 8 10 9 10 10 9 9 9 nan
nan 8 7 10 11 7 6 8 9 7 6 8 9 9 8 8 8 9 10 10 9 9 10 11 10 10 11 13 12 10 10 11 10 7 8 9 10 10 10 10 9 8 8 9 9 8 8 4 2 7 10 10 9 9 11 13 10 7 7 9 10 11 11 10 9 9 9 8 nan
nan 9 8 10 11 8 7 11 11 7 6 9 10 8 7 7 8 9 10 9 8 10 11 9 8 9 11 12 11 10 9 9 10 9 9 9 9 10 10 10 9 8 8 10 10 8 8 3 1 6 9 10 10 11 14 13 10 7 6 7 9 11 12 10 9 9 9 9 nan
nan 10 8 9 9 7 8 10 10 8 7 10 12 8 6 7 9 9 8 6 7 10 10 9 8 9 10 9 9 9 8 8 9 10 9 8 9 10 10 9 9 9 9 10 10 9 8 4 3 8 9 8 9 11 13 12 11 8 7 5 7 10 12 10 9 11 12 11 nan
nan 11 10 9 9 9 9 8 7 7 7 9 11 10 8 8 9 8 6 6 7 9 9 10 11 10 9 8 8 8 7 7 7 8 8 9 9 9 9 9 9 9 9 10 10 9 7 5 6 8 9 8 9 11 13 13 11 8 7 5 5 7 9 11 12 12 13 11 nan
nan 11 10 9 9 10 10 10 9 8 7 8 11 11 9 9 9 7 4 5 8 8 8 10 12 11 10 8 8 7 8 8 8 7 7 9 9 8 8 8 8 8 7 9 11 10 7 5 6 8 9 10 11 12 14 13 11 8 5 5 5 6 7 11 13 13 12 11 nan
nan 9 9 8 10 10 11 11 11 10 9 8 10 10 11 9 8 6 4 6 10 10 9 10 11 11 10 8 8 8 8 8 9 9 8 8 9 8 7 8 9 7 6 7 10 10 7 6 7 8 9 11 13 13 13 12 11 7 4 5 8 7 6 7 11 12 11 11 nan
nan 8 8 9 10 10 10 10 10 10 10 9 10 10 11 9 7 6 6 9 12 12 10 10 12 10 9 8 8 9 8 8 10 10 9 9 9 9 8 8 9 8 6 5 7 8 7 7 8 8 8 10 12 12 11 12 10 8 4 6 9 8 5 4 8 10 11 12 nan
nan 7 8 10 12 11 10 8 9 10 10 10 10 9 9 9 9 8 9 10 11 10 9 11 13 11 8 8 10 10 9 9 10 10 10 9 9 9 9 9 9 9 8 6 5 6 8 9 9 8 7 7 8 10 12 11 9 8 5 6 8 7 6 4 5 8 10 12 nan
nan 9 9 11 12 11 9 7 8 10 11 10 9 9 9 11 11 11 10 10 9 8 9 12 13 11 9 9 10 10 10 11 10 9 9 9 9 9 9 9 10 10 9 8 7 7 9 10 10 9 7 5 6 9 12 10 8 7 6 6 6 6 6 6 5 7 8 10 nan
nan 12 11 12 11 10 9 7 7 10 12 11 9 10 10 11 12 11 10 10 9 9 10 11 12 11 12 11 10 11 10 10 11 10 9 8 9 9 9 9 10 9 9 9 9 9 9 10 10 9 8 5 5 7 9 9 8 8 8 7 6 6 6 7 7 7 8 8 nan
nan 13 13 13 12 9 9 8 8 11 12 11 10 11 11 11 12 11 11 10 10 10 11 11 11 11 13 13 12 11 10 10 11 10 9 9 9 9 8 8 9 10 9 9 9 10 9 9 9 8 7 6 6 6 7 8 8 9 9 9 8 7 7 8 8 8 8 7 nan
nan 13 13 13 12 10 9 7 8 11 12 11 11 11 11 11 12 12 12 10 9 10 11 10 9 10 12 13 12 12 11 11 11 10 9 9 9 9 8 7 8 10 10 9 8 8 9 9 10 9 9 7 7 7 8 9 9 10 10 10 10 9 10 9 8 8 8 7 nan
nan 13 13 13 12 10 9 7 9 11 12 11 11 11 11 11 11 12 12 9 8 10 11 10 8 9 11 11 11 11 11 10 10 10 10 10 9 9 8 7 8 10 10 10 9 8 8 9 10 11 11 10 9 10 10 10 10 11 11 10 10 11 11 10 9 8 8 8 nan
nan 12 13 13 12 10 9 8 9 10 11 11 11 11 11 12 12 11 11 10 10 11 10 9 8 10 11 10 9 10 11 11 10 10 10 11 11 10 9 8 9 10 11 11 10 10 10 10 10 11 11 11 11 12 13 11 11 11 11 10 10 11 11 10 9 8 9 8 nan
nan 11 11 11 11 10 9 9 9 9 10 11 11 11 12 13 12 11 10 10 12 12 11 9 9 10 11 11 9 10 10 11 12 11 10 11 11 11 11 10 10 11 12 11 11 12 12 11 11 11 10 10 11 12 13 12 11 11 10 10 10 10 10 10 9 8 8 8 nan
nan 10 9 10 10 10 9 9 9 10 11 12 13 12 12 12 13 12 11 10 11 12 12 11 9 9 10 11 10 10 9 11 13 12 11 11 12 12 12 13 13 13 12 12 12 12 13 12 12 11 11 10 10 10 10 10 10 10 10 10 10 10 9 9 8 8 7 7 nan
nan 9 9 10 10 10 9 9 10 11 12 12 12 12 11 12 13 12 11 11 12 12 13 12 11 10 10 10 10 8 8 11 14 14 13 12 12 13 14 16 15 13 12 12 12 12 13 13 12 11 11 11 10 9 9 9 9 9 8 8 9 9 9 9 8 8 7 7 nan
nan 9 10 11 11 11 10 10 11 11 11 10 11 11 12 12 11 11 12 13 13 12 11 12 12 12 11 11 10 8 8 10 13 14 14 14 13 14 15 16 15 13 11 11 11 11 11 11 11 11 11 10 10 10 9 9 8 8 8 8 8 8 8 9 9 9 8 8 nan
nan 10 11 11 10 10 10 10 10 10 9 9 10 11 11 10 10 11 12 13 13 12 11 11 13 13 13 13 13 11 10 10 10 12 13 14 14 14 14 15 15 12 10 9 10 10 10 10 11 11 10 10 10 9 9 9 8 8 8 8 7 8 8 8 9 9 9 8 nan
nan 11 10 10 10 9 9 9 9 9 9 9 10 10 10 10 10 11 12 12 12 12 12 12 13 13 14 14 15 15 13 11 10 10 11 12 13 13 13 14 13 11 9 10 10 8 5 6 9 10 10 9 9 10 10 9 9 9 9 8 7 7 7 8 8 8 9 9 nan
nan 10 10 10 10 10 10 10 10 10 9 9 10 10 10 10 11 11 11 10 11 11 12 12 12 12 12 13 14 14 14 13 12 10 9 9 11 12 12 11 11 11 12 16 15 8 0 -2 1 6 9 10 9 9 9 10 11 10 9 9 8 7 7 8 8 8 9 9 nan
nan 9 9 10 11 11 11 10 10 10 9 9 10 10 10 10 11 11 11 9 9 10 11 11 11 11 11 11 11 12 12 13 14 13 11 9 9 9 10 10 10 11 15 19 17 10 3 -1 -3 -2 2 8 10 9 8 9 10 10 10 9 9 8 7 7 8 9 9 10 nan
nan 8 9 10 10 10 10 10 10 10 10 10 10 10 9 10 11 11 10 9 9 9 9 10 11 10 10 10 11 10 10 12 13 14 14 12 10 9 8 8 9 12 18 20 16 11 8 5 0 -3 -5 3 10 9 9 9 10 10 10 10 10 9 9 8 8 9 9 9 nan
nan 8 9 9 8 8 8 10 10 10 10 10 10 10 10 11 11 10 9 9 9 9 8 8 9 9 9 10 10 10 10 11 12 13 13 13 12 10 8 8 11 14 19 18 14 12 10 8 6 1 -5 -3 5 10 11 10 9 9 9 10 10 10 10 9 9 9 9 9 nan
nan 9 9 9 8 8 8 10 10 10 10 10 10 11 11 11 10 10 9 9 9 9 9 8 9 10 11 11 10 10 10 10 11 12 12 12 10 10 9 9 12 16 20 17 12 11 11 10 9 6 1 -6 -2 7 10 11 10 9 9 9 9 9 9 8 8 8 8 9 nan
nan 11 10 9 9 9 9 9 10 10 11 11 11 11 10 9 9 9 9 9 9 9 10 10 11 12 12 10 9 9 9 10 11 12 13 11 9 8 9 9 11 16 21 17 12 11 11 11 11 9 6 -4 -5 3 8 9 9 9 8 8 9 9 8 8 8 7 7 7 nan
nan 12 10 8 8 8 9 10 11 12 12 13 12 10 9 8 8 8 8 8 9 10 10 11 12 11 10 10 10 10 10 10 11 12 13 12 9 8 8 8 11 15 20 17 12 11 11 11 11 10 8 -2 -5 1 6 9 9 7 7 8 8 8 8 8 10 9 8 7 nan
nan 11 9 8 8 9 9 11 12 13 13 12 10 9 8 8 8 8 9 10 10 10 10 11 10 9 8 9 10 10 10 10 11 11 12 11 10 9 9 8 10 14 18 17 12 11 11 11 10 10 9 1 -2 2 6 8 8 8 8 9 9 8 7 7 8 10 9 8 nan
nan 10 9 9 9 9 10 11 12 11 11 9 8 8 8 8 9 10 10 11 11 11 10 11 10 8 8 8 9 9 9 10 10 10 11 11 11 10 9 8 10 13 16 16 12 10 10 10 10 10 10 4 1 5 7 7 7 7 9 10 10 10 9 7 6 7 8 8 nan
nan 9 9 9 10 10 11 12 11 10 9 8 8 9 9 10 10 10 10 10 10 10 10 11 11 10 10 10 10 10 9 8 9 10 11 11 11 10 8 7 10 14 15 13 10 9 9 9 9 9 10 8 6 8 9 8 7 7 8 8 9 10 10 10 8 8 8 8 nan
nan 9 9 9 10 11 11 11 11 10 10 8 8 8 9 10 10 9 9 9 9 9 9 10 11 10 10 11 12 12 11 9 8 9 10 11 11 10 7 7 10 15 15 12 9 8 8 8 8 8 9 10 10 11 11 10 9 9 8 8 9 9 10 10 10 11 11 11 nan
nan 10 9 9 10 11 11 11 10 10 9 8 7 7 8 9 10 9 9 9 9 10 9 10 10 10 9 9 10 11 11 10 9 9 10 10 10 9 7 7 10 14 16 13 9 8 8 8 8 8 10 12 11 11 11 11 11 11 10 10 10 11 11 12 12 13 13 13 nan
nan 11 10 9 9 10 10 10 9 9 8 7 7 7 8 8 9 10 10 10 9 10 9 10 10 10 9 9 9 10 11 11 10 10 9 9 9 8 8 7 9 13 16 15 11 9 8 8 8 9 11 13 11 10 10 10 11 12 12 12 13 13 13 14 15 15 14 13 nan
nan 12 11 10 9 10 10 10 10 9 8 7 7 8 9 9 9 10 11 11 11 10 9 9 10 9 9 10 10 10 11 11 12 11 10 9 9 9 8 8 8 11 13 14 13 11 10 10 9 10 12 12 11 10 10 10 11 11 12 13 13 14 14 14 15 15 15 13 nan
nan 13 12 11 10 10 11 11 10 9 8 8 9 9 9 10 10 10 11 12 13 12 10 10 10 10 11 11 11 10 9 10 12 12 12 11 10 10 10 9 9 9 10 12 13 14 14 14 14 15 17 16 14 13 12 12 12 12 12 12 12 12 13 13 14 14 14 13 nan
nan 14 14 13 11 11 11 11 10 10 10 10 9 9 9 10 10 10 10 12 13 13 13 12 12 12 13 12 11 10 9 9 11 12 12 12 12 12 13 13 10 8 6 8 13 17 19 20 20 22 27 25 19 17 16 15 14 13 12 12 11 11 12 12 12 12 12 13 nan
nan nan nan nan nan nan nan nan nan nan nan nan nan nan nan nan nan nan nan nan nan nan nan nan nan nan nan nan nan nan nan nan nan nan nan nan nan nan nan nan nan nan nan nan nan nan nan nan nan nan nan nan nan nan nan nan nan nan nan nan nan nan nan nan nan nan nan nan nan
CAPE
nan nan nan nan nan nan nan nan nan nan nan nan nan nan nan nan nan nan nan nan nan nan nan nan nan nan nan nan nan nan nan nan nan nan nan nan nan nan nan nan nan nan nan nan nan nan nan nan nan nan nan nan nan nan nan nan nan nan nan nan nan nan nan nan nan nan nan nan nan
nan nan nan nan nan nan nan nan nan nan nan nan nan nan nan nan nan nan nan nan nan nan nan nan nan nan nan nan nan nan nan nan nan nan nan nan nan nan nan nan nan nan nan nan nan nan nan nan nan nan nan nan nan nan nan nan nan nan nan nan nan nan nan nan nan nan nan nan nan
nan nan nan nan nan nan nan nan nan nan nan nan nan nan nan nan nan nan nan nan nan nan nan nan nan nan nan nan nan nan nan nan nan nan nan nan nan nan nan nan nan nan nan nan nan nan nan nan nan nan nan nan nan nan nan nan nan nan nan nan nan nan nan nan nan nan nan nan nan
nan nan nan nan nan nan nan nan nan nan nan nan nan nan nan nan nan nan nan nan nan nan nan nan nan nan nan nan nan nan nan nan nan nan nan nan nan nan nan nan nan nan nan nan nan nan nan nan nan nan nan nan nan nan nan nan nan nan nan nan nan nan nan nan nan nan nan nan nan
nan nan nan nan nan nan nan nan nan nan nan nan nan nan nan nan nan nan nan nan nan nan nan nan nan nan nan nan nan nan nan nan nan nan nan nan nan nan nan nan nan nan nan nan nan nan nan nan nan nan nan nan nan nan nan nan nan nan nan nan nan nan nan nan nan nan nan nan nan
nan nan nan nan nan nan nan nan nan nan nan nan nan nan nan nan nan nan nan nan nan nan nan nan nan nan nan nan nan nan nan nan nan nan nan nan nan nan nan nan nan nan nan nan nan nan nan nan nan nan nan nan nan nan nan nan nan nan nan nan nan nan nan nan nan nan nan nan nan
nan nan nan nan nan nan nan nan nan nan nan nan nan nan nan nan nan nan nan nan nan nan nan nan nan nan nan nan nan nan nan nan nan nan nan nan nan nan nan nan nan nan nan nan nan nan nan nan nan nan nan nan nan nan nan nan nan nan nan nan nan nan nan nan nan nan nan nan nan
nan nan nan nan nan nan nan nan nan nan nan nan nan nan nan nan nan nan nan nan nan nan nan nan nan nan nan nan nan nan nan nan nan nan nan nan nan nan nan nan nan nan nan nan nan nan nan nan nan nan nan nan nan nan nan nan nan nan nan nan nan nan nan nan nan nan nan nan nan
nan nan nan nan nan nan nan nan nan nan nan nan nan nan nan nan nan nan nan nan nan nan nan nan nan nan nan nan nan nan nan nan nan nan nan nan nan nan nan nan nan nan nan nan nan nan nan nan nan nan nan nan nan nan nan nan nan nan nan nan nan nan nan nan nan nan nan nan nan
nan nan nan nan nan nan nan nan nan nan nan nan nan nan nan nan nan nan nan nan nan nan nan nan nan nan nan nan nan nan nan nan nan nan nan nan nan nan nan nan nan nan nan nan nan nan nan nan nan nan nan nan nan nan nan nan nan nan nan nan nan nan nan nan nan nan nan nan nan
nan nan nan nan nan nan nan nan nan nan nan nan nan nan nan nan nan nan nan nan nan nan nan nan nan nan nan nan nan nan nan nan nan nan nan nan nan nan nan nan nan nan nan nan nan nan nan nan nan nan nan nan nan nan nan nan nan nan nan nan nan nan nan nan nan nan nan nan nan
nan nan nan nan nan nan nan nan nan nan nan nan nan nan nan nan nan nan nan nan nan nan nan nan nan nan nan nan nan nan nan nan nan nan nan nan nan nan nan nan nan nan nan nan nan nan nan nan nan nan nan nan nan nan nan nan nan nan nan nan nan nan nan nan nan nan nan nan nan
nan nan nan nan nan nan nan nan nan nan nan nan nan nan nan nan nan nan nan nan nan nan nan nan nan nan nan nan nan nan nan nan nan nan nan nan nan nan nan nan nan nan nan nan nan nan nan nan nan nan nan nan nan nan nan nan nan nan nan nan nan nan nan nan nan nan nan nan nan
nan nan nan nan nan nan nan nan nan nan nan nan nan nan nan nan nan nan nan nan nan nan nan nan nan nan nan nan nan nan nan nan nan nan nan nan nan nan nan nan nan nan nan nan nan nan nan nan nan nan nan nan nan nan nan nan nan nan nan nan nan nan nan nan nan nan nan nan nan
nan nan nan nan nan nan nan nan nan nan nan nan nan nan nan nan nan nan nan nan nan nan nan nan nan nan nan nan nan nan nan nan nan nan nan nan nan nan nan nan nan nan nan nan nan nan nan nan nan nan nan nan nan nan nan nan nan nan nan nan nan nan nan nan nan nan nan nan nan
nan nan nan nan nan nan nan nan nan nan nan nan nan nan nan nan nan nan nan nan nan nan nan nan nan nan nan nan nan nan nan nan nan nan nan nan nan nan nan nan nan nan nan nan nan nan nan nan nan nan nan nan nan nan nan nan nan nan nan nan nan nan nan nan nan nan nan nan nan
nan nan nan nan nan nan nan nan nan nan nan nan nan nan nan nan nan nan nan nan nan nan nan nan nan nan nan nan nan nan nan nan nan nan nan nan nan nan nan nan nan nan nan nan nan nan nan nan nan nan nan nan nan nan nan nan nan nan nan nan nan nan nan nan nan nan nan nan nan
nan nan nan nan nan nan nan nan nan nan nan nan nan nan nan nan nan nan nan nan nan nan nan nan nan nan nan nan nan nan nan nan nan nan nan nan nan nan nan nan nan nan nan nan nan nan nan nan nan nan nan nan nan nan nan nan nan nan nan nan nan nan nan nan nan nan nan nan nan
nan nan nan nan nan nan nan nan nan nan nan nan nan nan nan nan nan nan nan nan nan nan nan nan nan nan nan nan nan nan nan nan nan nan nan nan nan nan nan nan nan nan nan nan nan nan nan nan nan nan nan nan nan nan nan nan nan nan nan nan nan nan nan nan nan nan nan nan nan
nan nan nan nan nan nan nan nan nan nan nan nan nan nan nan nan nan nan nan nan nan nan nan nan nan nan nan nan nan nan nan nan nan nan nan nan nan nan nan nan nan nan nan nan nan nan nan nan nan nan nan nan nan nan nan nan nan nan nan nan nan nan nan nan nan nan nan nan nan
nan nan nan nan nan nan nan nan nan nan nan nan nan nan nan nan nan nan nan nan nan nan nan nan nan nan nan nan nan nan nan nan nan nan nan nan nan nan nan nan nan nan nan nan nan nan nan nan nan nan nan nan nan nan nan nan nan nan nan nan nan nan nan nan nan nan nan nan nan
nan nan nan nan nan nan nan nan nan nan nan nan nan nan nan nan nan nan nan nan nan nan nan nan nan nan nan nan nan nan nan nan nan nan nan nan nan nan nan nan nan nan nan nan nan nan nan nan nan nan nan nan nan nan nan nan nan nan nan nan nan nan nan nan nan nan nan nan nan
nan nan nan nan nan nan nan nan nan nan nan nan nan nan nan nan nan nan nan nan nan nan nan nan nan nan nan nan nan nan nan nan nan nan nan nan nan nan nan nan nan nan nan nan nan nan nan nan nan nan nan nan nan nan nan nan nan nan nan nan nan nan nan nan nan nan nan nan nan
nan nan nan nan nan nan nan nan nan nan nan nan nan nan nan nan nan nan nan nan nan nan nan nan nan nan nan nan nan nan nan nan nan nan nan nan nan nan nan nan nan nan nan nan nan nan nan nan nan nan nan nan nan nan nan nan nan nan nan nan nan nan nan nan nan nan nan nan nan
nan nan nan nan nan nan nan nan nan nan nan nan nan nan nan nan nan nan nan nan nan nan nan nan nan nan nan nan nan nan nan nan nan nan nan nan nan nan nan nan nan nan nan nan nan nan nan nan nan nan nan nan nan nan nan nan nan nan nan nan nan nan nan nan nan nan nan nan nan
nan nan nan nan nan nan nan nan nan nan nan nan nan nan nan nan nan nan nan nan nan nan nan nan nan nan nan nan nan nan nan nan nan nan nan nan nan nan nan nan nan nan nan nan nan nan nan nan nan nan nan nan nan nan nan nan nan nan nan nan nan nan nan nan nan nan nan nan nan
nan nan nan nan nan nan nan nan nan nan nan nan nan nan nan nan nan nan nan nan nan nan nan nan nan nan nan nan nan nan nan nan nan nan nan nan nan nan nan nan nan nan nan nan nan nan nan nan nan nan nan nan nan nan nan nan nan nan nan nan nan nan nan nan nan nan nan nan nan
nan nan nan nan nan nan nan nan nan nan nan nan nan nan nan nan nan nan nan nan nan nan nan nan nan nan nan nan nan nan nan nan nan nan nan nan nan nan nan nan nan nan nan nan nan nan nan nan nan nan nan nan nan nan nan nan nan nan nan nan nan nan nan nan nan nan nan nan nan
nan nan nan nan nan nan nan nan nan nan nan nan nan nan nan nan nan nan nan nan nan nan nan nan nan nan nan nan nan nan nan nan nan nan nan nan nan nan nan nan nan nan nan nan nan nan nan nan nan nan nan nan nan nan nan nan nan nan nan nan nan nan nan nan nan nan nan nan nan
nan nan nan nan nan nan nan nan nan nan nan nan nan nan nan nan nan nan nan nan nan nan nan nan nan nan nan nan nan nan nan nan nan nan nan nan nan nan nan nan nan nan nan nan nan nan nan nan nan nan nan nan nan nan nan nan nan nan nan nan nan nan nan nan nan nan nan nan nan
nan nan nan nan nan nan nan nan nan nan nan nan nan nan nan nan nan nan nan nan nan nan nan nan nan nan nan nan nan nan nan nan nan nan nan nan nan nan nan nan nan nan nan nan nan nan nan nan nan nan nan nan nan nan nan nan nan nan nan nan nan nan nan nan nan nan nan nan nan
nan nan nan nan nan nan nan nan nan nan nan nan nan nan nan nan nan nan nan nan nan nan nan nan nan nan nan nan nan nan nan nan nan nan nan nan nan nan nan nan nan nan nan nan nan nan nan nan nan nan nan nan nan nan nan nan nan nan nan nan nan nan nan nan nan nan nan nan nan
nan nan nan nan nan nan nan nan nan nan nan nan nan nan nan nan nan nan nan nan nan nan nan nan nan nan nan nan nan nan nan nan nan nan nan nan nan nan nan nan nan nan nan nan nan nan nan nan nan nan nan nan nan nan nan nan nan nan nan nan nan nan nan nan nan nan nan nan nan
nan nan nan nan nan nan nan nan nan nan nan nan nan nan nan nan nan nan nan nan nan nan nan nan nan nan nan nan nan nan nan nan nan nan nan nan nan nan nan nan nan nan nan nan nan nan nan nan nan nan nan nan nan nan nan nan nan nan nan nan nan nan nan nan nan nan nan nan nan
nan nan nan nan nan nan nan nan nan nan nan nan nan nan nan nan nan nan nan nan nan nan nan nan nan nan nan nan nan nan nan nan nan nan nan nan nan nan nan nan nan nan nan nan nan nan nan nan nan nan nan nan nan nan nan nan nan nan nan nan nan nan nan nan nan nan nan nan nan
nan nan nan nan nan nan nan nan nan nan nan nan nan nan nan nan nan nan nan nan nan nan nan nan nan nan nan nan nan nan nan nan nan nan nan nan nan nan nan nan nan nan nan nan nan nan nan nan nan nan nan nan nan nan nan nan nan nan nan nan nan nan nan nan nan nan nan nan nan
nan nan nan nan nan nan nan nan nan nan nan nan nan nan nan nan nan nan nan nan nan nan nan nan nan nan nan nan nan nan nan nan nan nan nan nan nan nan nan nan nan nan nan nan nan nan nan nan nan nan nan nan nan nan nan nan nan nan nan nan nan nan nan nan nan nan nan nan nan
nan nan nan nan nan nan nan nan nan nan nan nan nan nan nan nan nan nan nan nan nan nan nan nan nan nan nan nan nan nan nan nan nan nan nan nan nan nan nan nan nan nan nan nan nan nan nan nan nan nan nan nan nan nan nan nan nan nan nan nan nan nan nan nan nan nan nan nan nan
nan nan nan nan nan nan nan nan nan nan nan nan nan nan nan nan nan nan nan nan nan nan nan nan nan nan nan nan nan nan nan nan nan nan nan nan nan nan nan nan nan nan nan nan nan nan nan nan nan nan nan nan nan nan nan nan nan nan nan nan nan nan nan nan nan nan nan nan nan
nan nan nan nan nan nan nan nan nan nan nan nan nan nan nan nan nan nan nan nan nan nan nan nan nan nan nan nan nan nan nan nan nan nan nan nan nan nan nan nan nan nan nan nan nan nan nan nan nan nan nan nan nan nan nan nan nan nan nan nan nan nan nan nan nan nan nan nan nan
nan nan nan nan nan nan nan nan nan nan nan nan nan nan nan nan nan nan nan nan nan nan nan nan nan nan nan nan nan nan nan nan nan nan nan nan nan nan nan nan nan nan nan nan nan nan nan nan nan nan nan nan nan nan nan nan nan nan nan nan nan nan nan nan nan nan nan nan nan